Location: Lombard
(41.8800°N, 88.0080°W)
Time: 00:32:38
(UTC-05:00)

Tiros 1 - Pass Details

Date: 03 February 2023
Orbit: 628 x 662 km, 48.4° (Epoch: 20 March)

Event Time Altitude Azimuth Distance (km) Brightness Sun altitude
Rises 23:47:41 0° 231° (SW) 2,898 - -64.1°
Reaches altitude 10° 23:50:00 10° 229° (SW) 1,995 - -64.2°
Maximum altitude 23:54:32 67° 148° (SSE) 684 - -64.3°
Drops below altitude 10° 23:59:08 10° 66° (ENE) 2,015 - -64.4°
Sets 00:01:29 0° 63° (ENE) 2,930 - -64.4°
